JQ3CCU-10 Weather Reports


Display with metric or nautical units.
time (UTC)temp
F
wind
direction
speed
MPH
gust
MPH
rain 1hr
in
rain 24hr
in
rain mn
in
humidity
%
barometer
mb
20260508075415 84 0 0.0 0.0 0.00 0.00 0.00 56
20260508072415 84 0 0.0 0.0 0.00 0.00 0.00 59
20260508065415 85 0 0.0 0.0 0.00 0.00 0.00 56
20260508062415 85 0 0.0 0.0 0.00 0.00 0.00 55
20260508055415 85 0 0.0 0.0 0.00 0.00 0.00 55
20260508052415 85 0 0.0 0.0 0.00 0.00 0.00 54
20260508045415 85 0 0.0 0.0 0.00 0.00 0.00 55
20260508042415 84 0 0.0 0.0 0.00 0.00 0.00 59
20260508035415 84 0 0.0 0.0 0.00 0.00 0.00 58
20260508032415 85 0 0.0 0.0 0.00 0.00 0.00 54
20260508025415 85 0 0.0 0.0 0.00 0.00 0.00 54
20260508022415 84 0 0.0 0.0 0.00 0.00 0.00 55
20260508015415 84 0 0.0 0.0 0.00 0.00 0.00 54
20260508012415 85 0 0.0 0.0 0.00 0.00 0.00 51
20260508005415 91 0 0.0 0.0 0.00 0.00 0.00 42
20260508002415 80 0 0.0 0.0 0.00 0.00 0.00 58
20260507235415 78 0 0.0 0.0 0.00 0.00 0.00 61
20260507232415 77 0 0.0 0.0 0.00 0.00 0.00 63
20260507225415 77 0 0.0 0.0 0.00 0.00 0.00 67
20260507222415 77 0 0.0 0.0 0.00 0.00 0.00 63
20260507215415 76 0 0.0 0.0 0.00 0.00 0.00 65
20260507212415 75 0 0.0 0.0 0.00 0.00 0.00 66
20260507205415 75 0 0.0 0.0 0.00 0.00 0.00 66
20260507202415 75 0 0.0 0.0 0.00 0.00 0.00 66
20260507195415 75 0 0.0 0.0 0.00 0.00 0.00 66
20260507192415 76 0 0.0 0.0 0.00 0.00 0.00 66
20260507185415 76 0 0.0 0.0 0.00 0.00 0.00 70
20260507182415 76 0 0.0 0.0 0.00 0.00 0.00 65
20260507175415 76 0 0.0 0.0 0.00 0.00 0.00 65
20260507172415 76 0 0.0 0.0 0.00 0.00 0.00 65
20260507165415 76 0 0.0 0.0 0.00 0.00 0.00 65
20260507162415 76 0 0.0 0.0 0.00 0.00 0.00 65
20260507155415 76 0 0.0 0.0 0.00 0.00 0.00 65
20260507152415 76 0 0.0 0.0 0.00 0.00 0.00 65
20260507145415 76 0 0.0 0.0 0.00 0.00 0.00 65
20260507142415 76 0 0.0 0.0 0.00 0.00 0.00 65
20260507135415 77 0 0.0 0.0 0.00 0.00 0.00 65
20260507132415 77 0 0.0 0.0 0.00 0.00 0.00 65
20260507125415 77 0 0.0 0.0 0.00 0.00 0.00 64
20260507122415 78 0 0.0 0.0 0.00 0.00 0.00 64
20260507115415 78 0 0.0 0.0 0.00 0.00 0.00 63
20260507112415 79 0 0.0 0.0 0.00 0.00 0.00 63
20260507105415 80 0 0.0 0.0 0.00 0.00 0.00 66
20260507102415 80 0 0.0 0.0 0.00 0.00 0.00 66
20260507095415 82 0 0.0 0.0 0.00 0.00 0.00 58
20260507092415 83 0 0.0 0.0 0.00 0.00 0.00 57
20260507085415 83 0 0.0 0.0 0.00 0.00 0.00 57
20260507082415 83 0 0.0 0.0 0.00 0.00 0.00 56